488P/NEAT-PanSTARRS (2024)

Japanese version
Home page
Updated on November 27, 2024

---------------------------------------------------------------------

* Profile

Designation 488P/2024 N6
Re-discovery Date July 9, 2024
Magnitude 20.6 mag
Re-discoverer Pan-STARRS 2 telescope (Haleakala)

* Pictures

* Orbital Elements

Epoch 2024 Oct. 17.0 TT = JDT 2460600.5
T 2024 May 19.18351 TT                                  Rudenko
q   1.6778854            (2000.0)            P               Q
n   0.13666689     Peri.    1.46520     +0.82418838     +0.55438678
a   3.7327351      Node   324.07087     -0.52156813     +0.66353221
e   0.5504944      Incl.   11.36428     -0.22063589     +0.50237467
P   7.21
From 93 observations 2002 July 6-2024 Sept. 30, mean residual 0".4.

* Magnitudes Graph

        m1 = 16.5 + 5 log d + 10.0 log r

---------------------------------------------------------------------

The orbital elements are published on M.P.E.C. 2024-U109.
The magnitudes graphs are made with Comet for Windows.

---------------------------------------------------------------------

Copyright(C) Seiichi Yoshida (comet@aerith.net). All rights reserved.